SCP
-0 -0 -0 -0 -0 -0 -0 -0 -0 -0 -0 -0 -0 -0 -0 -0 -0 -0 -0 0 0 0 0 0 0 0 0 0 0 0 0 0 0 0 0 0 0 0 0 0 0 0 0 0 0 0 0
-0 -0 -0 -0 -0 -0 -0 -0 -0 -0 -0 -0 -0 0 0 0 -0 -0 0 0 0 0 0 0 0 0 0 0 0 0 0 0 0 0 0 0 0 0 0 0 0 0 0 0 0 0 0
0 -0 -0 -0 -0 -0 -0 -0 -0 0 -0 -0 -0 0 0 0 0 0 0 0 0 0 0 0 0 0 0 0 0 0 0 0 0 0 0 0 0 0 0 0 0 0 0 0 0 0 0
0 0 0 0 0 0 -0 -0 0 0 0 0 0 0 0 0 0 0 0 0 0 0 0 0 0 0 0 0 0 0 0 0 0 0 0 0 0 0 0 0 0 0 0 0 0 0 0
0 0 0 0 0 -0 -0 -0 -0 -0 0 0 0 0 0 0 0 0 0 0 0 0 0 0 0 0 0 0 0 0 0 0 0 0 0 0 0 0 0 0 0 0 0 0 0 0 0
0 0 0 0 0 0 0 0 -0 -0 -0 0 0 0 0 0 0 0 0 0 0 0 0 0 0 0 0 0 0 0 0 0 0 0 0 0 0 0 0 0 0 0 0 0 0 0 0
0 0 0 0 0 0 0 0 0 -0 0 0 0 0 0 0 0 0 0 0 0 0 0 0 0 0 0 0 0 0 0 0 0 0 0 0 0 0 0 0 0 0 0 0 0 0 0
0 0 0 0 0 0 0 0 0 0 0 0 0 0 0 0 0 0 0 0 0 0 0 0 0 0 0 0 -0 -0 -0 0 0 0 0 0 0 0 0 0 0 0 0 0 0 0 0
0 0 0 0 0 0 0 0 0 0 0 0 0 0 0 0 0 0 0 0 0 0 0 0 0 0 0 0 0 0 0 0 0 0 0 0 0 0 0 0 0 0 0 0 0 0 0
0 0 0 0 0 0 0 0 0 0 0 0 0 0 0 0 0 0 0 0 0 0 0 0 0 0 0 0 0 -0 0 0 0 0 0 0 0 0 -0 0 0 0 0 0 0 0 0
0 0 0 0 0 0 0 0 0 0 0 0 0 0 0 0 0 0 0 0 0 0 0 0 0 -0 0 0 0 -0 0 0 0 0 0 0 -0 -0 0 -0 0 0 0 0 0 0 0
0 0 0 0 0 0 0 0 0 0 0 0 0 0 0 0 0 0 0 0 0 0 0 0 0 0 0 0 0 0 0 0 0 0 0 0 0 0 0 0 0 0 0 0 0 0 0
0 0 0 0 0 0 0 0 0 0 0 0 0 0 0 0 0 0 0 0 0 0 0 0 -0 -0 0 0 0 0 0 0 0 0 0 0 0 0 0 0 0 0 0 0 0 -0 0
0 0 0 0 0 0 0 0 0 0 0 0 0 0 0 0 0 0 0 0 0 0 0 0 0 0 0 0 0 0 0 0 0 0 0 -0 -0 -0 0 0 -0 0 0 0 0 0 0
0 0 0 0 0 0 0 0 0 0 0 0 0 0 0 0 0 0 0 0 0 0 0 0 0 0 0 0 0 0 0 0 0 0 0 0 -0 0 0 0 0 -0 0 0 0 0 0
0 0 0 0 0 0 0 0 0 0 0 0 0 0 0 0 0 0 0 0 0 0 0 0 0 0 0 0 0 0 -0 -0 0 0 -0 -0 -0 0 0 0 0 0 0 0 0 0 0
0 0 0 0 0 0 0 0 0 0 0 0 0 0 0 0 0 0 0 0 0 0 0 0 0 0 0 0 -0 0 0 0 0 0 0 -0 -0 0 0 0 0 0 0 0 0 0 0
0 0 0 0 0 0 0 0 0 0 0 0 0 -0 0 0 0 0 0 0 0 -0 0 0 0 0 0 0 0 0 -0 0 -0 0 0 -0 -0 -0 0 0 0 0 0 0 0 0 0
0 0 0 0 0 0 0 0 0 0 0 0 0 0 0 -0 0 0 0 0 0 -0 0 0 0 0 0 0 -0 -0 -0 0 -0 0 0 -0 -0 -0 -0 0 0 0 0 0 0 0 -0
0 0 0 0 0 0 0 0 0 0 0 0 0 0 0 0 0 0 0 0 0 0 0 0 0 0 0 -0 -0 -0 -0 -0 -0 0 -0 0 -0 -0 -0 -0 -0 0 0 0 0 0 -0
0 0 0 0 0 0 0 0 0 0 0 0 0 0 0 0 0 0 0 0 0 0 0 0 0 0 0 -0 -0 0 -0 0 -0 -0 0 -0 -0 -0 -0 -0 -0 -0 -0 0 -0 -0 -0
0 0 0 0 0 0 0 0 0 0 0 0 0 0 0 0 0 0 0 0 -0 -0 -0 0 -0 -0 0 0 -0 0 0 -0 -0 0 0 -0 -0 -0 0 -0 -0 -0 -0 0 0 -0 0
0 0 0 0 0 0 0 0 0 0 0 0 0 0 0 0 0 0 0 -0 -0 -0 0 0 -0 0 0 0 -0 -0 -0 -0 -0 -0 0 0 -0 -0 -0 0 -0 -0 0 0 -0 -0 -0
0 0 0 0 0 0 0 0 0 0 0 0 0 0 0 0 0 0 -0 0 -0 -0 -0 -0 -0 -0 0 -0 -0 -0 -0 -0 -0 -0 -0 -0 -0 -0 0 0 -0 0 -0 0 0 -0 0
0 0 0 0 0 0 0 0 0 0 0 0 0 0 0 0 0 0 0 0 0 0 0 -0 -0 0 0 -0 -0 0 0 -0 -0 -0 -0 -0 0 0 0 -0 -0 0 0 0 0 0 0
0 0 0 0 0 0 0 0 0 0 0 0 0 0 0 0 0 0 0 0 0 0 0 0 0 0 0 0 0 0 0 -0 0 0 -0 -0 0 -0 0 -0 0 0 -0 -0 0 0 0
0 0 0 0 0 0 0 0 0 0 0 0 0 0 0 0 0 0 0 0 0 0 0 0 0 0 0 0 0 0 0 0 0 0 -0 0 -0 -0 0 0 0 0 -0 0 0 0 -0
0 0 0 0 0 0 0 0 0 0 0 0 0 0 0 0 0 0 0 0 0 -0 0 0 0 0 0 0 0 0 0 0 0 0 -0 -0 0 0 0 0 0 -0 0 0 0 -0 -0
0 0 0 0 0 0 0 0 0 0 0 0 0 0 0 0 0 0 -0 -0 -0 -0 -0 0 0 0 0 0 0 0 0 0 0 0 0 0 0 0 0 0 0 0 0 -0 -0 0 0
Wind_Speed_500mb
47 47 48 47 47 47 48 49 51 52 51 52 54 54 52 52 55 56 56 56 56 58 60 62 62 59 38 19 45 32 33 26 27 20 26 36 40 32 16 13 40 37 37 60 60 74 79
49 47 47 47 47 47 47 47 48 50 51 53 54 54 53 55 58 57 59 60 57 52 50 50 51 41 28 18 17 16 21 14 13 19 24 30 18 38 26 27 35 30 42 45 60 69 66
48 47 47 46 45 46 48 51 55 58 58 58 58 59 59 62 67 68 67 68 59 59 54 46 40 35 34 81 23 15 16 24 21 23 34 35 43 45 26 21 66 55 38 36 50 40 42
47 47 49 52 54 55 55 57 58 60 61 62 64 66 68 72 73 74 71 60 56 57 49 46 34 16 31 39 37 35 47 42 36 26 38 38 45 51 55 45 53 32 28 38 25 36 44
47 49 52 54 55 57 58 59 60 63 66 68 69 71 72 73 75 74 72 59 55 44 41 43 14 7 34 15 32 24 34 41 32 41 35 30 33 40 34 17 18 18 35 33 30 32 22
47 49 51 52 53 56 60 62 64 66 67 69 71 73 75 74 75 75 62 57 30 37 17 26 13 14 32 22 25 14 16 19 27 31 42 34 21 14 13 12 31 19 24 28 42 34 35
47 48 49 52 56 59 63 64 67 69 69 69 72 73 76 77 74 67 48 45 40 14 15 31 55 55 66 51 51 25 12 24 23 29 20 39 15 32 20 31 38 35 35 39 40 33 44
47 48 51 53 56 59 64 70 72 74 76 75 76 79 80 82 72 41 35 33 30 39 55 75 94 89 99 93 85 91 69 38 27 24 21 24 40 34 28 37 40 44 46 45 41 39 31
49 48 50 52 56 60 67 76 80 78 80 80 81 85 89 83 65 35 36 28 35 39 15 70 31 29 35 47 67 70 53 55 30 26 25 32 42 31 42 44 44 41 38 34 40 36 41
53 52 50 53 56 63 69 78 85 87 87 86 86 87 84 88 43 29 15 37 37 41 7 17 20 24 36 10 11 40 34 42 22 28 32 35 38 44 40 33 46 42 37 42 39 29 27
56 56 55 57 61 66 74 80 87 89 88 89 85 87 76 70 47 18 27 40 41 25 10 12 26 33 72 16 27 29 27 35 8 7 8 30 47 53 20 29 39 31 26 22 27 27 28
57 57 61 63 65 70 78 84 88 89 89 95 94 78 84 55 37 17 40 47 33 5 14 6 37 44 53 62 60 60 55 28 32 17 25 32 62 42 28 36 42 33 13 17 22 21 22
56 58 62 66 69 75 81 86 86 90 93 93 94 77 69 36 13 13 32 41 6 9 39 28 53 45 39 37 48 47 51 36 13 14 14 27 41 56 20 16 36 44 18 9 6 9 20
55 58 62 67 71 78 83 83 86 90 91 92 91 77 42 10 4 18 34 10 9 15 29 42 37 46 28 47 42 48 44 37 24 26 19 17 28 22 9 25 16 6 15 17 11 11 20
56 58 62 68 72 79 80 79 85 89 89 89 91 62 20 28 6 15 31 6 8 30 34 34 37 31 43 35 30 39 35 39 30 9 7 12 12 19 24 7 6 9 11 13 10 12 8
58 59 64 70 73 79 76 78 83 86 86 82 85 53 18 7 10 29 6 15 25 32 36 29 30 25 34 42 28 30 25 20 32 22 24 8 12 18 7 7 30 20 6 10 5 10 9
61 63 67 70 75 77 70 74 79 78 80 76 60 30 4 17 31 29 10 18 33 48 42 24 29 34 29 29 30 32 10 39 26 18 9 5 7 9 10 8 9 7 9 11 5 7 9
61 65 66 70 74 73 65 69 71 69 77 73 34 9 19 41 18 21 8 23 46 45 45 18 21 26 14 17 13 20 11 17 50 27 10 4 3 9 13 23 4 6 7 9 8 12 11
60 61 62 69 74 65 60 63 65 61 61 72 39 20 32 58 9 20 27 34 47 39 19 21 22 27 7 6 18 22 15 18 36 18 4 5 6 9 15 15 20 5 16 11 18 3 25
59 58 61 65 73 63 58 59 61 55 50 51 17 9 26 45 54 32 27 36 34 40 30 42 30 33 10 30 28 23 44 22 18 22 45 11 7 8 6 20 19 19 21 9 7 11 7
61 60 59 59 69 62 56 56 55 51 43 31 9 11 28 14 27 34 32 28 34 30 32 39 13 34 39 25 36 29 36 38 35 14 9 11 6 9 18 29 33 34 37 35 12 15 10
57 60 54 56 62 60 61 51 49 48 41 21 18 19 26 45 42 34 27 26 36 38 30 23 31 42 34 26 30 23 34 33 23 29 8 5 6 13 16 29 19 31 36 36 39 31 29
56 57 52 52 57 55 58 51 41 42 39 12 22 35 20 22 26 23 23 36 41 40 15 49 41 30 22 27 53 69 68 66 44 29 35 21 9 9 9 18 34 19 18 34 35 30 29
58 54 51 51 52 50 52 46 39 33 28 21 23 34 16 12 19 24 45 40 41 38 33 55 57 20 41 78 91 64 57 53 38 34 34 17 12 3 10 15 6 13 37 10 24 27 20
56 54 51 49 47 47 48 41 32 32 26 28 17 34 16 13 33 37 40 41 47 50 33 45 44 61 61 56 15 15 8 8 4 11 29 31 11 4 5 5 17 11 24 19 16 9 18
54 53 48 46 45 46 44 37 33 29 29 31 15 21 26 19 9 52 51 35 28 23 23 32 62 35 40 7 8 8 6 10 8 9 21 19 15 4 3 3 8 8 44 46 25 7 23
53 50 46 44 43 44 40 33 30 34 29 27 30 17 28 34 48 30 33 29 40 20 13 31 31 31 23 8 5 7 7 12 7 10 5 6 3 9 12 5 11 22 50 37 9 3 26
52 49 45 43 42 41 35 31 33 33 27 29 38 22 25 37 70 66 46 42 58 59 17 39 23 5 5 8 6 7 6 7 8 7 9 1 5 1 6 4 8 50 26 12 18 47 31
48 44 42 41 40 37 32 32 35 32 30 30 42 30 22 45 66 86 90 61 55 53 57 21 17 30 8 3 3 6 6 7 9 6 10 5 9 3 7 5 17 34 22 39 45 19 33
Wind_Direction_500mb
31 28 25 23 19 17 14 10 6 3 359 355 353 350 347 343 339 336 331 326 321 316 313 310 307 311 320 279 268 271 272 284 291 237 211 193 207 205 227 229 250 258 241 250 248 248 258
29 27 23 20 17 14 11 7 3 359 358 355 352 350 346 341 338 336 332 330 325 320 317 310 305 304 304 267 319 286 266 261 272 241 222 211 215 216 270 240 243 272 270 259 245 247 245
27 26 23 19 16 11 7 3 1 358 357 353 351 348 346 344 341 340 338 333 327 321 318 312 299 294 273 267 259 243 224 251 261 243 236 236 238 247 231 266 251 259 271 275 256 265 254
24 24 22 19 15 11 7 3 1 357 354 352 350 348 347 344 341 337 335 333 323 312 314 310 308 257 257 292 286 231 224 242 258 243 248 257 255 258 253 265 281 281 270 254 255 254 259
21 21 20 19 16 14 10 6 1 358 354 351 348 346 344 343 340 335 332 334 318 311 307 312 302 243 267 291 273 280 227 237 253 248 246 253 262 271 272 269 270 253 255 261 265 245 247
19 17 16 15 15 12 9 6 2 357 353 349 346 343 340 340 338 333 332 340 329 319 329 331 288 268 265 271 283 227 254 251 240 247 236 226 256 238 246 233 236 238 253 253 256 263 234
14 12 10 8 8 7 4 1 357 354 350 346 343 340 337 335 337 333 337 1 352 336 349 265 258 252 267 273 290 256 233 223 236 259 255 206 218 229 217 229 243 263 265 254 253 242 243
9 5 3 3 1 359 358 356 353 350 346 343 341 339 334 333 340 337 339 338 347 316 301 281 272 265 268 269 272 274 277 243 206 231 249 254 233 234 235 246 240 235 245 258 272 273 278
4 0 358 356 354 351 351 352 350 346 343 340 338 340 336 330 342 337 325 348 334 326 301 301 284 261 268 252 245 260 254 252 229 232 231 246 260 243 225 241 248 242 246 249 245 254 268
0 357 354 352 348 347 347 348 347 344 343 340 338 340 340 334 341 331 18 344 335 328 298 280 16 22 16 343 347 311 258 252 258 273 239 246 262 252 266 267 236 247 238 249 262 260 247
357 356 354 350 347 345 344 345 345 343 344 343 339 336 333 335 312 331 328 336 322 322 308 52 26 339 354 16 297 312 343 315 185 248 275 299 304 300 282 282 302 281 291 332 309 293 293
355 355 352 348 345 342 342 343 343 341 341 339 336 336 332 324 305 342 345 323 312 232 248 355 12 353 346 341 329 327 322 319 243 207 207 215 257 259 240 244 260 269 271 313 325 297 273
353 352 351 348 345 343 343 343 343 342 341 339 336 337 326 304 308 357 340 329 296 231 349 350 349 348 330 325 335 336 328 323 346 333 312 297 274 275 231 268 277 279 215 210 285 268 259
348 345 343 344 344 344 343 344 344 343 343 341 340 337 329 273 336 344 342 330 260 15 320 345 339 327 343 341 336 334 323 312 307 296 287 277 290 249 267 255 290 232 325 232 212 222 264
338 338 339 340 342 343 343 345 345 344 343 343 342 346 11 16 151 301 327 302 298 341 343 332 335 333 330 338 335 339 318 300 285 112 328 298 253 324 296 243 338 307 255 297 179 194 258
335 336 336 339 340 340 342 345 345 342 342 347 342 344 26 59 315 308 280 247 301 321 330 332 329 341 328 326 339 330 309 297 324 309 162 247 282 255 314 14 184 200 151 313 4 182 226
335 335 336 337 337 338 342 345 346 344 342 349 348 326 218 343 339 295 245 284 308 324 343 350 339 322 321 343 332 314 307 299 343 341 351 271 260 289 295 208 181 162 151 180 192 161 204
335 334 335 333 335 337 341 346 349 348 343 352 353 311 357 348 321 300 6 340 330 322 357 344 333 320 356 344 300 311 287 293 322 310 316 132 249 277 265 257 52 164 323 204 179 184 208
330 330 331 332 335 337 337 343 348 352 349 344 328 277 346 341 2 357 341 330 315 339 329 348 342 337 61 343 307 284 271 303 316 321 7 341 244 308 333 39 43 354 285 302 255 295 235
330 329 328 331 335 337 336 341 344 354 349 345 324 312 343 336 1 348 326 312 339 324 334 357 328 319 6 323 311 295 307 326 324 295 282 259 259 238 272 307 292 280 287 255 188 238 288
327 329 329 330 333 341 339 339 342 350 356 355 334 346 345 324 330 316 316 313 321 344 355 342 335 338 321 312 312 299 323 318 326 293 273 173 236 277 298 297 289 286 283 288 211 244 251
328 330 328 329 334 341 342 338 343 349 0 9 352 343 333 298 321 321 313 353 347 344 348 340 327 318 322 298 294 295 307 295 283 300 318 208 283 311 290 290 317 305 274 254 247 205 220
327 328 327 327 331 335 338 337 343 349 1 356 336 334 329 297 320 320 343 338 333 340 332 323 317 324 296 316 307 292 280 271 261 280 288 288 282 356 259 333 311 278 299 228 217 215 199
326 324 325 326 328 332 336 337 339 345 350 336 336 329 316 293 310 309 321 316 335 334 321 317 323 341 311 310 306 293 265 247 240 239 229 249 271 214 284 304 267 335 332 320 196 226 186
322 323 324 327 328 331 335 335 336 335 343 328 1 328 313 291 306 301 326 328 316 313 313 308 338 323 315 316 316 330 342 56 38 238 215 215 215 265 273 300 288 356 353 351 360 292 140
320 322 323 324 324 329 333 331 329 333 329 323 324 306 308 301 252 320 316 314 317 321 310 312 319 311 330 309 331 316 333 351 331 325 37 71 107 164 323 301 303 353 328 324 317 94 114
318 320 319 319 321 327 328 328 327 327 332 327 320 320 304 282 283 288 309 308 304 303 288 311 339 332 351 341 313 340 322 341 314 310 145 121 168 216 232 245 240 349 329 326 53 15 302
320 318 320 318 318 323 323 321 323 325 331 323 315 312 296 279 286 287 276 293 292 287 283 288 323 32 322 355 330 349 295 311 300 280 337 329 268 240 275 322 360 348 350 25 307 299 312
314 315 320 319 318 318 318 321 321 321 322 320 306 309 288 289 274 286 293 287 274 270 272 275 264 299 270 315 327 303 283 288 311 331 342 40 355 15 18 354 306 327 330 324 326 79 129
Wind_Speed_850mb
47 47 48 47 47 47 48 49 51 52 51 52 54 54 52 52 55 56 56 56 56 58 60 62 62 59 38 19 45 32 33 26 27 20 26 36 40 32 16 13 40 37 37 60 60 74 79
49 47 47 47 47 47 47 47 48 50 51 53 54 54 53 55 58 57 59 60 57 52 50 50 51 41 28 18 17 16 21 14 13 19 24 30 18 38 26 27 35 30 42 45 60 69 66
48 47 47 46 45 46 48 51 55 58 58 58 58 59 59 62 67 68 67 68 59 59 54 46 40 35 34 81 23 15 16 24 21 23 34 35 43 45 26 21 66 55 38 36 50 40 42
47 47 49 52 54 55 55 57 58 60 61 62 64 66 68 72 73 74 71 60 56 57 49 46 34 16 31 39 37 35 47 42 36 26 38 38 45 51 55 45 53 32 28 38 25 36 44
47 49 52 54 55 57 58 59 60 63 66 68 69 71 72 73 75 74 72 59 55 44 41 43 14 7 34 15 32 24 34 41 32 41 35 30 33 40 34 17 18 18 35 33 30 32 22
47 49 51 52 53 56 60 62 64 66 67 69 71 73 75 74 75 75 62 57 30 37 17 26 13 14 32 22 25 14 16 19 27 31 42 34 21 14 13 12 31 19 24 28 42 34 35
47 48 49 52 56 59 63 64 67 69 69 69 72 73 76 77 74 67 48 45 40 14 15 31 55 55 66 51 51 25 12 24 23 29 20 39 15 32 20 31 38 35 35 39 40 33 44
47 48 51 53 56 59 64 70 72 74 76 75 76 79 80 82 72 41 35 33 30 39 55 75 94 89 99 93 85 91 69 38 27 24 21 24 40 34 28 37 40 44 46 45 41 39 31
49 48 50 52 56 60 67 76 80 78 80 80 81 85 89 83 65 35 36 28 35 39 15 70 31 29 35 47 67 70 53 55 30 26 25 32 42 31 42 44 44 41 38 34 40 36 41
53 52 50 53 56 63 69 78 85 87 87 86 86 87 84 88 43 29 15 37 37 41 7 17 20 24 36 10 11 40 34 42 22 28 32 35 38 44 40 33 46 42 37 42 39 29 27
56 56 55 57 61 66 74 80 87 89 88 89 85 87 76 70 47 18 27 40 41 25 10 12 26 33 72 16 27 29 27 35 8 7 8 30 47 53 20 29 39 31 26 22 27 27 28
57 57 61 63 65 70 78 84 88 89 89 95 94 78 84 55 37 17 40 47 33 5 14 6 37 44 53 62 60 60 55 28 32 17 25 32 62 42 28 36 42 33 13 17 22 21 22
56 58 62 66 69 75 81 86 86 90 93 93 94 77 69 36 13 13 32 41 6 9 39 28 53 45 39 37 48 47 51 36 13 14 14 27 41 56 20 16 36 44 18 9 6 9 20
55 58 62 67 71 78 83 83 86 90 91 92 91 77 42 10 4 18 34 10 9 15 29 42 37 46 28 47 42 48 44 37 24 26 19 17 28 22 9 25 16 6 15 17 11 11 20
56 58 62 68 72 79 80 79 85 89 89 89 91 62 20 28 6 15 31 6 8 30 34 34 37 31 43 35 30 39 35 39 30 9 7 12 12 19 24 7 6 9 11 13 10 12 8
58 59 64 70 73 79 76 78 83 86 86 82 85 53 18 7 10 29 6 15 25 32 36 29 30 25 34 42 28 30 25 20 32 22 24 8 12 18 7 7 30 20 6 10 5 10 9
61 63 67 70 75 77 70 74 79 78 80 76 60 30 4 17 31 29 10 18 33 48 42 24 29 34 29 29 30 32 10 39 26 18 9 5 7 9 10 8 9 7 9 11 5 7 9
61 65 66 70 74 73 65 69 71 69 77 73 34 9 19 41 18 21 8 23 46 45 45 18 21 26 14 17 13 20 11 17 50 27 10 4 3 9 13 23 4 6 7 9 8 12 11
60 61 62 69 74 65 60 63 65 61 61 72 39 20 32 58 9 20 27 34 47 39 19 21 22 27 7 6 18 22 15 18 36 18 4 5 6 9 15 15 20 5 16 11 18 3 25
59 58 61 65 73 63 58 59 61 55 50 51 17 9 26 45 54 32 27 36 34 40 30 42 30 33 10 30 28 23 44 22 18 22 45 11 7 8 6 20 19 19 21 9 7 11 7
61 60 59 59 69 62 56 56 55 51 43 31 9 11 28 14 27 34 32 28 34 30 32 39 13 34 39 25 36 29 36 38 35 14 9 11 6 9 18 29 33 34 37 35 12 15 10
57 60 54 56 62 60 61 51 49 48 41 21 18 19 26 45 42 34 27 26 36 38 30 23 31 42 34 26 30 23 34 33 23 29 8 5 6 13 16 29 19 31 36 36 39 31 29
56 57 52 52 57 55 58 51 41 42 39 12 22 35 20 22 26 23 23 36 41 40 15 49 41 30 22 27 53 69 68 66 44 29 35 21 9 9 9 18 34 19 18 34 35 30 29
58 54 51 51 52 50 52 46 39 33 28 21 23 34 16 12 19 24 45 40 41 38 33 55 57 20 41 78 91 64 57 53 38 34 34 17 12 3 10 15 6 13 37 10 24 27 20
56 54 51 49 47 47 48 41 32 32 26 28 17 34 16 13 33 37 40 41 47 50 33 45 44 61 61 56 15 15 8 8 4 11 29 31 11 4 5 5 17 11 24 19 16 9 18
54 53 48 46 45 46 44 37 33 29 29 31 15 21 26 19 9 52 51 35 28 23 23 32 62 35 40 7 8 8 6 10 8 9 21 19 15 4 3 3 8 8 44 46 25 7 23
53 50 46 44 43 44 40 33 30 34 29 27 30 17 28 34 48 30 33 29 40 20 13 31 31 31 23 8 5 7 7 12 7 10 5 6 3 9 12 5 11 22 50 37 9 3 26
52 49 45 43 42 41 35 31 33 33 27 29 38 22 25 37 70 66 46 42 58 59 17 39 23 5 5 8 6 7 6 7 8 7 9 1 5 1 6 4 8 50 26 12 18 47 31
48 44 42 41 40 37 32 32 35 32 30 30 42 30 22 45 66 86 90 61 55 53 57 21 17 30 8 3 3 6 6 7 9 6 10 5 9 3 7 5 17 34 22 39 45 19 33
Wind_Direction_850mb
31 28 25 23 19 17 14 10 6 3 359 355 353 350 347 343 339 336 331 326 321 316 313 310 307 311 320 279 268 271 272 284 291 237 211 193 207 205 227 229 250 258 241 250 248 248 258
29 27 23 20 17 14 11 7 3 359 358 355 352 350 346 341 338 336 332 330 325 320 317 310 305 304 304 267 319 286 266 261 272 241 222 211 215 216 270 240 243 272 270 259 245 247 245
27 26 23 19 16 11 7 3 1 358 357 353 351 348 346 344 341 340 338 333 327 321 318 312 299 294 273 267 259 243 224 251 261 243 236 236 238 247 231 266 251 259 271 275 256 265 254
24 24 22 19 15 11 7 3 1 357 354 352 350 348 347 344 341 337 335 333 323 312 314 310 308 257 257 292 286 231 224 242 258 243 248 257 255 258 253 265 281 281 270 254 255 254 259
21 21 20 19 16 14 10 6 1 358 354 351 348 346 344 343 340 335 332 334 318 311 307 312 302 243 267 291 273 280 227 237 253 248 246 253 262 271 272 269 270 253 255 261 265 245 247
19 17 16 15 15 12 9 6 2 357 353 349 346 343 340 340 338 333 332 340 329 319 329 331 288 268 265 271 283 227 254 251 240 247 236 226 256 238 246 233 236 238 253 253 256 263 234
14 12 10 8 8 7 4 1 357 354 350 346 343 340 337 335 337 333 337 1 352 336 349 265 258 252 267 273 290 256 233 223 236 259 255 206 218 229 217 229 243 263 265 254 253 242 243
9 5 3 3 1 359 358 356 353 350 346 343 341 339 334 333 340 337 339 338 347 316 301 281 272 265 268 269 272 274 277 243 206 231 249 254 233 234 235 246 240 235 245 258 272 273 278
4 0 358 356 354 351 351 352 350 346 343 340 338 340 336 330 342 337 325 348 334 326 301 301 284 261 268 252 245 260 254 252 229 232 231 246 260 243 225 241 248 242 246 249 245 254 268
0 357 354 352 348 347 347 348 347 344 343 340 338 340 340 334 341 331 18 344 335 328 298 280 16 22 16 343 347 311 258 252 258 273 239 246 262 252 266 267 236 247 238 249 262 260 247
357 356 354 350 347 345 344 345 345 343 344 343 339 336 333 335 312 331 328 336 322 322 308 52 26 339 354 16 297 312 343 315 185 248 275 299 304 300 282 282 302 281 291 332 309 293 293
355 355 352 348 345 342 342 343 343 341 341 339 336 336 332 324 305 342 345 323 312 232 248 355 12 353 346 341 329 327 322 319 243 207 207 215 257 259 240 244 260 269 271 313 325 297 273
353 352 351 348 345 343 343 343 343 342 341 339 336 337 326 304 308 357 340 329 296 231 349 350 349 348 330 325 335 336 328 323 346 333 312 297 274 275 231 268 277 279 215 210 285 268 259
348 345 343 344 344 344 343 344 344 343 343 341 340 337 329 273 336 344 342 330 260 15 320 345 339 327 343 341 336 334 323 312 307 296 287 277 290 249 267 255 290 232 325 232 212 222 264
338 338 339 340 342 343 343 345 345 344 343 343 342 346 11 16 151 301 327 302 298 341 343 332 335 333 330 338 335 339 318 300 285 112 328 298 253 324 296 243 338 307 255 297 179 194 258
335 336 336 339 340 340 342 345 345 342 342 347 342 344 26 59 315 308 280 247 301 321 330 332 329 341 328 326 339 330 309 297 324 309 162 247 282 255 314 14 184 200 151 313 4 182 226
335 335 336 337 337 338 342 345 346 344 342 349 348 326 218 343 339 295 245 284 308 324 343 350 339 322 321 343 332 314 307 299 343 341 351 271 260 289 295 208 181 162 151 180 192 161 204
335 334 335 333 335 337 341 346 349 348 343 352 353 311 357 348 321 300 6 340 330 322 357 344 333 320 356 344 300 311 287 293 322 310 316 132 249 277 265 257 52 164 323 204 179 184 208
330 330 331 332 335 337 337 343 348 352 349 344 328 277 346 341 2 357 341 330 315 339 329 348 342 337 61 343 307 284 271 303 316 321 7 341 244 308 333 39 43 354 285 302 255 295 235
330 329 328 331 335 337 336 341 344 354 349 345 324 312 343 336 1 348 326 312 339 324 334 357 328 319 6 323 311 295 307 326 324 295 282 259 259 238 272 307 292 280 287 255 188 238 288
327 329 329 330 333 341 339 339 342 350 356 355 334 346 345 324 330 316 316 313 321 344 355 342 335 338 321 312 312 299 323 318 326 293 273 173 236 277 298 297 289 286 283 288 211 244 251
328 330 328 329 334 341 342 338 343 349 0 9 352 343 333 298 321 321 313 353 347 344 348 340 327 318 322 298 294 295 307 295 283 300 318 208 283 311 290 290 317 305 274 254 247 205 220
327 328 327 327 331 335 338 337 343 349 1 356 336 334 329 297 320 320 343 338 333 340 332 323 317 324 296 316 307 292 280 271 261 280 288 288 282 356 259 333 311 278 299 228 217 215 199
326 324 325 326 328 332 336 337 339 345 350 336 336 329 316 293 310 309 321 316 335 334 321 317 323 341 311 310 306 293 265 247 240 239 229 249 271 214 284 304 267 335 332 320 196 226 186
322 323 324 327 328 331 335 335 336 335 343 328 1 328 313 291 306 301 326 328 316 313 313 308 338 323 315 316 316 330 342 56 38 238 215 215 215 265 273 300 288 356 353 351 360 292 140
320 322 323 324 324 329 333 331 329 333 329 323 324 306 308 301 252 320 316 314 317 321 310 312 319 311 330 309 331 316 333 351 331 325 37 71 107 164 323 301 303 353 328 324 317 94 114
318 320 319 319 321 327 328 328 327 327 332 327 320 320 304 282 283 288 309 308 304 303 288 311 339 332 351 341 313 340 322 341 314 310 145 121 168 216 232 245 240 349 329 326 53 15 302
320 318 320 318 318 323 323 321 323 325 331 323 315 312 296 279 286 287 276 293 292 287 283 288 323 32 322 355 330 349 295 311 300 280 337 329 268 240 275 322 360 348 350 25 307 299 312
314 315 320 319 318 318 318 321 321 321 322 320 306 309 288 289 274 286 293 287 274 270 272 275 264 299 270 315 327 303 283 288 311 331 342 40 355 15 18 354 306 327 330 324 326 79 129